Content
SEND FEEDBACK

Daily
Averages
Monthly
Summary
Bolivia

ACHOCALLA, BOLIVIA


Home > South America > Bolivia
Elevation: 13248 feet     Latitude: 16 31S     Longitude: 068 10W

WEATHER
 
SELECT A DAY
Number of Records: 169,970;   Date Range: 6/30/96 - 8/10/14
 
SHARE

PRINT THIS DATA

[ ← Previous Day ]
WEATHER ALMANAC - JANUARY 31, 2013
[ Next Day → ]
[ °C ]   °F
Weather ElementAverageHighLow
Temperature47 °F57.2 °F (2:00 pm)37.4 °F (4:00 am)
Dewpoint39 °F42.8 °F (9:00 am)35.6 °F (4:00 am)
Humidity74.4 %100 % (3:18 am)42 % (2:00 pm)
Barometer25.73 in30.63 in (1:00 am) (7:00 pm)
Wind Speed7.2 mph15 mph (5:00 pm)
Weather ElementAverage
Visibility5.5 mi
Wind DirectionE (91.2 °)

Weather ElementTotal
Precipitation---
Heating Degree Days17.7 (Base 65)
Averaged from 28 records on January 31, 2013
WEATHER CONDITIONS BREAKOUT
WIND DIRECTION BREAKOUT
WEATHER BY HOUR - JANUARY 31, 2013
[ °C ]   °F
Local TimeTemperatureDewpointHumidityBarometerVisibilityWind DirectionWind SpeedGust SpeedPrecipitationEventsConditions
1:00 AM41.0 °F39.2 °F93 %30.63 in6.2 miEast (90°)6.9 mphScattered Clouds
2:00 AM39.0 °F36.0 °F87 %9.0 mi°2.3 mphScattered Clouds
2:00 AM39.2 °F37.4 °F93 %30.57 in6.2 miVariable2.3 mphScattered Clouds
3:00 AM39.2 °F37.4 °F93 %30.57 in1.9 miENE (70°)6.9 mphFogFog
3:18 AM39.2 °F39.2 °F100 %30.57 in0.8 miENE (70°)5.8 mphFogFog
4:00 AM37.4 °F35.6 °F93 %30.57 in2.5 miENE (60°)4.6 mphFogFog
5:00 AM41.0 °F39.2 °F93 %30.57 in1.2 miEast (100°)6.9 mphFogFog
6:00 AM41.0 °F39.2 °F93 %1.9 miESE (110°)9.2 mphFogFog
7:00 AM42.8 °F39.2 °F87 %2.5 miEast (90°)6.9 mphFogFog
8:00 AM48.0 °F40.0 °F66 %5.0 mi°3.5 mphPartly Cloudy
8:00 AM48.2 °F41.0 °F76 %30.57 in5.0 miVariable3.5 mphScattered Clouds
9:00 AM48.2 °F42.8 °F82 %30.63 in6.2 miESE (120°)6.9 mphScattered Clouds
10:00 AM50.0 °F35.6 °F58 %30.63 in6.2 miESE (110°)8.1 mphPartly Cloudy
11:00 AM50.0 °F42.8 °F76 %30.63 in6.2 miSE (130°)10.4 mphPartly Cloudy
12:00 PM51.8 °F41.0 °F67 %30.63 in6.2 miSSE (150°)8.1 mphScattered Clouds
1:00 PM53.6 °F39.2 °F58 %30.60 in6.2 miEast (100°)8.1 mphScattered Clouds
2:00 PM56.0 °F39.0 °F42 %9.0 miENE (70°)8.1 mphPartly Cloudy
2:00 PM57.2 °F39.2 °F51 %30.54 in6.2 miENE (70°)8.1 mphPartly Cloudy
3:00 PM55.4 °F37.4 °F51 %30.54 in6.2 miSouth (170°)13.8 mphThunderstormPartly Cloudy
4:00 PM50.0 °F39.2 °F66 %6.2 miSSW (200°)9.2 mphThunderstormScattered Clouds
5:00 PM48.2 °F39.2 °F71 %30.48 in6.2 miNNE (20°)15.0 mphScattered Clouds
6:00 PM53.6 °F39.2 °F58 %30.48 in6.2 miEast (80°)11.5 mphScattered Clouds
7:00 PM51.8 °F39.2 °F62 %30.48 in6.2 miENE (70°)8.1 mphScattered Clouds
8:00 PM45.0 °F39.0 °F74 %9.0 miENE (70°)5.8 mphPartly Cloudy
8:00 PM44.6 °F39.2 °F81 %30.48 in6.2 miENE (70°)5.8 mphMostly Cloudy
9:00 PM48.2 °F41.0 °F76 %6.2 miEast (90°)3.5 mphMostly Cloudy
10:00 PM48.2 °F39.2 °F71 %30.57 in6.2 miSouth (170°)5.8 mphScattered Clouds
11:00 PM48.2 °F37.4 °F66 %30.63 in6.2 miEast (90°)5.8 mphMostly Cloudy
Hourly data recorded from SLLP, located miles away from Achocalla, Bolivia







STORIES FROM OUR PARTNERS